• în România
  • Lista ţărilor
  • Pe 7 zile
  • Temperatura apei
  • Hartă satelitară
  • Meteo pe hartă
  • Widget-uri
  • user-avatar
    Intrare

    Meteo pe oră la Sinemorec

    Astăzi, 19 Septembrie, Miercuri

    Timp Temperatura Precipitaţii Vânt Presiune Umiditate
    00:00 +18°C° 0 mm 4 m/s 764 mmHg 84%
    01:00 +18°C° 0 mm 4 m/s 764 mmHg 86%
    02:00 +18°C° 0 mm 4 m/s 764 mmHg 86%
    03:00 +18°C° 0 mm 4 m/s 764 mmHg 86%
    04:00 +17°C° 0 mm 4 m/s 764 mmHg 87%
    05:00 +16°C° 0 mm 5 m/s 764 mmHg 88%
    06:00 +19°C° 0 mm 5 m/s 764 mmHg 81%
    07:00 +20°C° 0 mm 5 m/s 764 mmHg 75%
    08:00 +21°C° 0 mm 6 m/s 764 mmHg 69%
    09:00 +22°C° 0.1 mm 6 m/s 764 mmHg 65%
    10:00 +23°C° 0.1 mm 6 m/s 764 mmHg 62%
    11:00 +24°C° 0.1 mm 6 m/s 764 mmHg 58%
    12:00 +24°C° 0 mm 6 m/s 764 mmHg 58%
    13:00 +26°C° 0 mm 7 m/s 764 mmHg 57%
    14:00 +26°C° 0 mm 7 m/s 764 mmHg 57%
    15:00 +24°C° 0 mm 7 m/s 763 mmHg 59%
    16:00 +23°C° 0 mm 7 m/s 763 mmHg 62%
    17:00 +22°C° 0 mm 7 m/s 763 mmHg 64%
    18:00 +21°C° 0 mm 6 m/s 763 mmHg 69%
    19:00 +20°C° 0 mm 6 m/s 763 mmHg 74%
    20:00 +19°C° 0 mm 6 m/s 763 mmHg 79%
    21:00 +19°C° 0 mm 5 m/s 763 mmHg 80%
    22:00 +19°C° 0 mm 5 m/s 763 mmHg 81%
    23:00 +17°C° 0 mm 5 m/s 763 mmHg 83%

    Mâine, 20 Septembrie, Joi

    Timp Temperatura Precipitaţii Vânt Presiune Umiditate
    00:00 +17°C° 0 mm 5 m/s 763 mmHg 84%
    01:00 +17°C° 0 mm 5 m/s 763 mmHg 86%
    02:00 +16°C° 0 mm 5 m/s 763 mmHg 87%
    03:00 +16°C° 0 mm 5 m/s 763 mmHg 88%
    04:00 +16°C° 0 mm 5 m/s 763 mmHg 89%
    05:00 +16°C° 0 mm 5 m/s 762 mmHg 89%
    06:00 +19°C° 0 mm 6 m/s 762 mmHg 84%
    07:00 +20°C° 0 mm 6 m/s 762 mmHg 78%
    08:00 +22°C° 0 mm 6 m/s 763 mmHg 72%
    09:00 +23°C° 0 mm 7 m/s 762 mmHg 67%
    10:00 +24°C° 0 mm 7 m/s 762 mmHg 63%
    11:00 +26°C° 0 mm 7 m/s 762 mmHg 58%
    12:00 +27°C° 0 mm 7 m/s 762 mmHg 57%
    13:00 +27°C° 0 mm 6 m/s 762 mmHg 56%
    14:00 +27°C° 0 mm 6 m/s 762 mmHg 56%
    15:00 +26°C° 0 mm 6 m/s 761 mmHg 59%
    16:00 +26°C° 0 mm 6 m/s 761 mmHg 63%
    17:00 +24°C° 0 mm 6 m/s 761 mmHg 66%
    18:00 +23°C° 0 mm 6 m/s 761 mmHg 73%
    19:00 +21°C° 0 mm 6 m/s 761 mmHg 80%
    20:00 +20°C° 0 mm 5 m/s 762 mmHg 87%
    21:00 +20°C° 0 mm 5 m/s 762 mmHg 88%
    22:00 +20°C° 0 mm 5 m/s 762 mmHg 89%
    23:00 +20°C° 0 mm 5 m/s 761 mmHg 90%

    Poimâine, 21 Septembrie, Vineri

    Timp Temperatura Precipitaţii Vânt Presiune Umiditate
    00:00 +19°C° 0 mm 5 m/s 761 mmHg 91%
    01:00 +19°C° 0 mm 4 m/s 761 mmHg 92%
    02:00 +19°C° 0 mm 4 m/s 761 mmHg 93%
    03:00 +19°C° 0 mm 4 m/s 761 mmHg 93%
    04:00 +19°C° 0 mm 5 m/s 761 mmHg 93%
    05:00 +19°C° 0 mm 5 m/s 761 mmHg 93%
    06:00 +20°C° 0 mm 5 m/s 761 mmHg 87%
    07:00 +21°C° 0 mm 5 m/s 761 mmHg 81%
    08:00 +22°C° 0 mm 5 m/s 761 mmHg 75%
    09:00 +25°C° 0 mm 5 m/s 761 mmHg 68%
    10:00 +26°C° 0 mm 5 m/s 762 mmHg 60%
    11:00 +28°C° 0 mm 5 m/s 762 mmHg 52%
    12:00 +28°C° 0 mm 5 m/s 761 mmHg 52%
    13:00 +28°C° 0 mm 5 m/s 761 mmHg 51%
    14:00 +28°C° 0 mm 5 m/s 761 mmHg 50%
    15:00 +28°C° 0 mm 5 m/s 761 mmHg 53%
    16:00 +27°C° 0 mm 5 m/s 761 mmHg 57%
    17:00 +26°C° 0 mm 5 m/s 761 mmHg 61%
    18:00 +23°C° 0 mm 4 m/s 761 mmHg 70%
    19:00 +22°C° 0 mm 4 m/s 761 mmHg 79%
    20:00 +20°C° 0 mm 4 m/s 761 mmHg 88%
    21:00 +20°C° 0 mm 3 m/s 761 mmHg 89%
    22:00 +20°C° 0 mm 3 m/s 761 mmHg 90%
    23:00 +20°C° 0 mm 3 m/s 761 mmHg 91%

    22 Septembrie, Sâmbătă

    Timp Temperatura Precipitaţii Vânt Presiune Umiditate
    00:00 +19°C° 0 mm 3 m/s 761 mmHg 91%
    01:00 +19°C° 0 mm 3 m/s 761 mmHg 91%
    02:00 +19°C° 0 mm 2 m/s 761 mmHg 92%
    03:00 +19°C° 0 mm 2 m/s 761 mmHg 92%
    04:00 +18°C° 0 mm 2 m/s 761 mmHg 92%
    05:00 +18°C° 0 mm 2 m/s 761 mmHg 92%
    06:00 +20°C° 0 mm 3 m/s 761 mmHg 85%
    07:00 +21°C° 0 mm 3 m/s 761 mmHg 79%
    08:00 +22°C° 0 mm 3 m/s 761 mmHg 72%
    09:00 +25°C° 0 mm 3 m/s 761 mmHg 63%
    10:00 +27°C° 0 mm 3 m/s 761 mmHg 54%
    11:00 +28°C° 0 mm 3 m/s 761 mmHg 45%
    12:00 +29°C° 0 mm 3 m/s 760 mmHg 43%
    13:00 +29°C° 0 mm 4 m/s 760 mmHg 42%
    14:00 +30°C° 0 mm 4 m/s 760 mmHg 40%
    15:00 +29°C° 0 mm 3 m/s 760 mmHg 44%
    16:00 +28°C° 0 mm 3 m/s 759 mmHg 48%
    17:00 +27°C° 0 mm 3 m/s 759 mmHg 53%
    18:00 +25°C° 0 mm 3 m/s 759 mmHg 62%
    19:00 +23°C° 0 mm 2 m/s 760 mmHg 71%
    20:00 +20°C° 0 mm 2 m/s 760 mmHg 80%
    21:00 +20°C° 0 mm 2 m/s 760 mmHg 80%
    22:00 +20°C° 0 mm 1 m/s 760 mmHg 80%
    23:00 +20°C° 0 mm 1 m/s 760 mmHg 79%

    23 Septembrie, Duminică

    Timp Temperatura Precipitaţii Vânt Presiune Umiditate
    00:00 +20°C° 0 mm 1 m/s 760 mmHg 78%
    01:00 +20°C° 0 mm 1 m/s 760 mmHg 77%
    02:00 +20°C° 0 mm 1 m/s 760 mmHg 75%
    03:00 +20°C° 0 mm 1 m/s 760 mmHg 74%
    04:00 +20°C° 0 mm 1 m/s 760 mmHg 73%
    05:00 +18°C° 0 mm 2 m/s 760 mmHg 72%
    06:00 +20°C° 0 mm 2 m/s 760 mmHg 67%
    07:00 +23°C° 0 mm 2 m/s 760 mmHg 61%
    08:00 +24°C° 0 mm 2 m/s 760 mmHg 55%
    09:00 +26°C° 0 mm 2 m/s 761 mmHg 48%
    10:00 +29°C° 0 mm 2 m/s 761 mmHg 42%
    11:00 +31°C° 0 mm 2 m/s 761 mmHg 35%
    12:00 +31°C° 0 mm 2 m/s 761 mmHg 33%
    13:00 +32°C° 0 mm 2 m/s 761 mmHg 32%
    14:00 +32°C° 0 mm 2 m/s 760 mmHg 30%
    15:00 +32°C° 0 mm 4 m/s 760 mmHg 34%
    16:00 +30°C° 0 mm 5 m/s 761 mmHg 37%
    17:00 +29°C° 0 mm 6 m/s 761 mmHg 41%
    18:00 +27°C° 0 mm 6 m/s 761 mmHg 55%
    19:00 +23°C° 0 mm 7 m/s 762 mmHg 69%
    20:00 +21°C° 0 mm 7 m/s 762 mmHg 83%
    21:00 +21°C° 0 mm 6 m/s 762 mmHg 86%
    22:00 +20°C° 0 mm 6 m/s 762 mmHg 89%
    23:00 +20°C° 0 mm 5 m/s 762 mmHg 92%

    24 Septembrie, Luni

    Timp Temperatura Precipitaţii Vânt Presiune Umiditate
    00:00 +20°C° 0 mm 5 m/s 762 mmHg 93%
    01:00 +20°C° 0 mm 4 m/s 762 mmHg 93%
    02:00 +19°C° 0 mm 4 m/s 761 mmHg 94%
    03:00 +19°C° 0 mm 4 m/s 761 mmHg 95%
    04:00 +19°C° 0 mm 4 m/s 761 mmHg 95%
    05:00 +19°C° 0 mm 4 m/s 761 mmHg 96%
    06:00 +20°C° 0 mm 4 m/s 761 mmHg 91%
    07:00 +21°C° 0 mm 4 m/s 760 mmHg 86%
    08:00 +22°C° 0 mm 4 m/s 760 mmHg 81%
    09:00 +25°C° 0 mm 4 m/s 760 mmHg 73%
    10:00 +27°C° 0 mm 4 m/s 760 mmHg 65%
    11:00 +28°C° 0 mm 4 m/s 760 mmHg 56%
    12:00 +29°C° 0 mm 4 m/s 759 mmHg 55%
    13:00 +29°C° 0 mm 5 m/s 758 mmHg 54%
    14:00 +30°C° 0 mm 5 m/s 758 mmHg 53%
    15:00 +28°C° 0 mm 5 m/s 757 mmHg 58%
    16:00 +27°C° 0 mm 5 m/s 757 mmHg 64%
    17:00 +26°C° 0 mm 5 m/s 756 mmHg 69%
    18:00 +23°C° 0 mm 5 m/s 756 mmHg 77%
    19:00 +22°C° 0 mm 4 m/s 756 mmHg 84%
    20:00 +20°C° 0 mm 4 m/s 756 mmHg 92%
    21:00 +20°C° 0 mm 3 m/s 756 mmHg 92%
    22:00 +20°C° 0 mm 3 m/s 756 mmHg 92%
    23:00 +19°C° 0 mm 3 m/s 756 mmHg 92%
    Arată mai mult